Regional Weather Roundup
Issued by NWS Little Rock, AR

Home | Current Version | Previous Version | Text Only | Print | Product List | Glossary Off
Versions: 1 2 3 4 5 6 7 8 9 10 11 12 13 14 15 16 17 18 19 20 21 22 23 24 25 26 27 28 29 30 31 32 33 34 35 36 37 38 39 40 41 42 43 44 45 46 47 48 49 50

000
ASUS44 KLZK 061805
RWRLZK

WEATHER ROUNDUP FOR ARKANSAS
NATIONAL WEATHER SERVICE LITTLE ROCK AR
100 PM CDT MON JUL 06 2015

NOTE: "FAIR" INDICATES FEW OR NO CLOUDS BELOW 12,000 FEET WITH NO
SIGNIFICANT WEATHER AND/OR OBSTRUCTIONS TO VISIBILITY.

ARZ001-003-010-029-061900-
NORTHWEST ARKANSAS

CITY           SKY/WX    TMP DP  RH WIND       PRES   REMARKS
FAYETTEVILLE   CLOUDY    80  73  79 S14       30.03F
6HR MIN TEMP:  72; 6HR MAX TEMP:  81;

FORT SMITH     PTSUNNY   85  71  63 SW14      30.01F HX  90
6HR MIN TEMP:  73; 6HR MAX TEMP:  85;

HARRISON       PTSUNNY   82  72  71 S10       30.06F HX  87
6HR MIN TEMP:  71; 6HR MAX TEMP:  83;

BENTONVILLE    CLOUDY    81  72  74 S13G18    30.04F
6HR MIN TEMP:  73; 6HR MAX TEMP:  81;

ROGERS         CLOUDY    80  72  76 S15       30.04F
6HR MIN TEMP:  72; 6HR MAX TEMP:  80;

SILOAM SPGS    CLOUDY    81  72  74 SW14      30.04F
6HR MIN TEMP:  73; 6HR MAX TEMP:  81;

HIGHFILL       CLOUDY    81  74  79 S9        30.03F HX  86
6HR MIN TEMP:  73; 6HR MAX TEMP:  81;

SPRINGDALE     CLOUDY    82  72  69 SW16G24   30.06F HX  87
$$

ARZ004-005-016-061900-
NORTH CENTRAL ARKANSAS

CITY           SKY/WX    TMP DP  RH WIND       PRES   REMARKS
BATESVILLE     MOSUNNY   86  75  70 SE10      30.06F HX  95
6HR MIN TEMP:  72; 6HR MAX TEMP:  86;

FLIPPIN          N/A     86  70  58 SW10G17   30.02F HX  90
6HR MIN TEMP:  70; 6HR MAX TEMP:  86;

MTN HOME       MOSUNNY   84  72  67 S10       30.03F HX  89
6HR MIN TEMP:  71; 6HR MAX TEMP:  86;

$$

ARZ040-041-061900-
WEST CENTRAL ARKANSAS

CITY           SKY/WX    TMP DP  RH WIND       PRES   REMARKS
MENA           PTSUNNY   82  75  78 SW3       30.08S HX  89
MOUNT IDA      MOSUNNY   84  72  67 MISG      30.05F HX  89
6HR MIN TEMP:  74; 6HR MAX TEMP:  84;

$$

ARZ009-017-025-026-028-061900-
NORTHEAST ARKANSAS

CITY           SKY/WX    TMP DP  RH WIND       PRES   REMARKS
JONESBORO      CLOUDY    83  74  74 S10       30.07F HX  89
6HR MIN TEMP:  70; 6HR MAX TEMP:  83;

NEWPORT        PTSUNNY   85  74  69 S16       30.08F HX  92
6HR MIN TEMP:  71; 6HR MAX TEMP:  85;

WALNUT RIDGE   PTSUNNY   84  73  70 SW10G17   30.05F HX  91
6HR MIN TEMP:  72; 6HR MAX TEMP:  84;

BLYTHEVILLE    CLOUDY    82  76  81 SW14      30.09S HX  89
6HR MIN TEMP:  72; 6HR MAX TEMP:  83;

$$

ARZ022-023-033-042-044-061900-
CENTRAL ARKANSAS

CITY           SKY/WX    TMP DP  RH WIND       PRES   REMARKS
LITTLE ROCK    PTSUNNY   87  72  60 SW14      30.07F HX  93
6HR MIN TEMP:  71; 6HR MAX TEMP:  87;

N LITTLE ROCK  PTSUNNY   85  75  72 S10G16    30.07F HX  93
6HR MIN TEMP:  71; 6HR MAX TEMP:  85;

JACKSONVILLE   PTSUNNY   86  74  65 S10       30.07F HX  94
6HR MIN TEMP:  71; 6HR MAX TEMP:  86;

SEARCY         PTSUNNY   85  75  72 S10       30.08F HX  93
6HR MIN TEMP:  70; 6HR MAX TEMP:  86;

HOT SPRINGS    MOSUNNY   86  71  60 SW10      30.07F HX  91
6HR MIN TEMP:  74; 6HR MAX TEMP:  86;

RUSSELLVILLE   CLOUDY    84  74  71 SW10      30.04F HX  91
6HR MIN TEMP:  73; 6HR MAX TEMP:  85;

CLINTON        PTSUNNY   82  75  78 SE7       30.06F HX  89
$$

ARZ036-061900-
EAST ARKANSAS

CITY           SKY/WX    TMP DP  RH WIND       PRES   REMARKS
WEST MEMPHIS   CLOUDY    81  76  84 S12       30.09F HX  87
6HR MIN TEMP:  70; 6HR MAX TEMP:  82;

$$

ARZ050-053-066-070-073-061900-
SOUTHWEST ARKANSAS

CITY           SKY/WX    TMP DP  RH WIND       PRES   REMARKS
ARKADELPHIA    FAIR      88  77  69 S12       30.08F HX 100
6HR MIN TEMP:  71; 6HR MAX TEMP:  88;

CAMDEN         MOSUNNY   90  72  55 MISG      30.08F HX  96
TEXARKANA      PTSUNNY   88  73  61 S15G24    30.07S HX  95
6HR MIN TEMP:  74; 6HR MAX TEMP:  88;

EL DORADO      MOSUNNY   87  73  62 S13       30.10F HX  94
6HR MIN TEMP:  69; 6HR MAX TEMP:  87;

DE QUEEN       PTSUNNY   85  74  69 S13G20    30.03F HX  92
6HR MIN TEMP:  73; 6HR MAX TEMP:  86;

$$

ARZ056-057-069-061900-
SOUTHEAST ARKANSAS

CITY           SKY/WX    TMP DP  RH WIND       PRES   REMARKS
PINE BLUFF     MOSUNNY   86  74  67 SW7       30.09F HX  94
6HR MIN TEMP:  68; 6HR MAX TEMP:  87;

STUTTGART      PTSUNNY   82  73  74 MISG      30.09F HX  88
6HR MIN TEMP:  72; 6HR MAX TEMP:  82;

MONTICELLO     PTSUNNY   85  76  74 SW6       30.11S HX  94
6HR MIN TEMP:  67; 6HR MAX TEMP:  85;


$$




USA.gov is the U.S. government's official web portal to all federal, state and local government web resources and services.